Voltar ao catálogo

FENGYUN 1C DEB

AtivoSSO
NORAD 29969·DEBRIS·🇨🇳 China

Lançado May 10, 1999 de Taiyuan Satellite Launch Center

Loading…

Próximas Passagens (próximas 24 horas)

TLE

AtualizadoSource: Space-Track

Época: Sep 14, 2026, 05:48 UTC

1 29969U 99025KT  26257.24203615  .00002122  00000-0  74783-3 0  9994
2 29969  98.7652 350.5057 0040541 317.1920  69.0257 14.35426036 15937

Acompanhe FENGYUN 1C DEB em tempo real com AllMySat

Download on the App Store